Temp
21 21 21 21 21 22 22 22 22 22 22 22 23 22 22 22 22 22 22 22 22 22 22 22 22 22 22 22 22 22 22 22 22 22 22 22 22 22 23 22 21 21 21 21 21 21 21 22 22 22 22 22 22 22 22 22 22 22 22 22 21 21 21 21 21 22 22 21 21 21 21 21 21 21 21 21 21 21 21 21 21 21 21 21 21
21 21 21 21 21 22 22 22 22 22 22 22 22 22 22 22 22 22 22 22 22 22 22 22 22 22 22 22 22 22 22 22 22 22 22 22 22 22 23 22 21 21 21 21 21 21 21 22 22 22 22 22 22 22 22 22 22 22 22 22 22 21 21 21 21 21 21 21 21 21 21 21 21 21 21 21 21 22 21 21 21 21 21 21 21
21 21 21 21 22 21 22 22 22 22 22 23 22 22 22 22 22 22 22 22 22 22 22 22 22 22 22 22 22 22 21 21 22 22 22 22 22 22 22 22 21 21 21 21 21 21 21 22 21 22 22 22 22 22 22 22 22 22 22 22 22 22 22 22 21 21 21 21 21 21 21 21 21 21 21 21 22 22 21 21 21 21 21 21 21
21 21 21 21 22 22 22 22 22 22 22 23 22 23 22 22 22 22 22 22 22 22 22 22 21 21 21 21 22 21 21 21 22 22 22 22 22 22 22 21 21 21 21 21 21 21 22 22 21 22 22 22 22 22 22 22 22 22 22 22 22 22 22 21 21 21 21 21 21 21 21 21 21 21 21 21 22 21 21 21 21 21 21 21 21
22 22 22 21 22 22 22 23 22 22 22 23 23 23 22 22 22 22 22 22 22 22 21 21 21 21 21 21 21 21 21 21 22 22 22 22 22 22 22 20 20 21 21 21 21 22 21 21 22 22 22 22 22 22 22 21 21 21 22 22 22 22 22 21 21 21 21 21 21 21 21 21 21 21 21 21 21 21 21 21 21 21 21 21 21
22 22 22 22 22 22 22 22 22 22 23 23 23 22 22 22 22 22 22 22 22 22 21 21 21 21 21 21 21 21 21 21 22 22 22 22 22 21 21 21 20 21 21 21 21 22 21 21 21 22 22 21 21 22 22 21 21 21 21 21 22 21 22 22 21 21 21 21 21 21 21 21 21 21 21 21 21 21 21 21 21 21 21 21 21
22 22 22 22 22 22 22 22 22 22 23 23 22 22 22 22 22 22 22 22 22 22 22 22 22 21 21 21 21 21 21 21 22 22 22 22 22 21 21 20 20 21 21 21 22 21 21 21 21 22 22 22 21 21 21 21 21 21 21 21 21 21 22 22 21 22 22 22 21 21 21 21 21 21 21 21 21 21 21 21 21 21 21 21 21
22 23 22 22 22 22 22 22 22 23 23 22 22 22 22 22 22 22 22 22 22 22 22 22 22 21 21 21 21 21 21 21 22 22 22 22 22 22 21 20 20 21 21 21 21 21 22 22 21 22 22 22 21 21 21 21 21 21 22 22 21 21 22 22 21 21 21 21 21 21 21 21 21 21 21 21 21 21 21 21 21 21 21 21 21
23 22 22 22 22 22 22 22 22 22 22 22 22 22 22 22 22 22 22 22 21 21 21 22 21 21 21 21 21 21 21 22 23 22 22 22 22 21 20 20 20 21 21 21 21 21 21 21 21 22 22 22 21 21 21 21 21 21 22 22 21 21 22 22 21 21 21 21 21 21 21 21 21 21 21 21 21 21 21 21 21 21 21 21 21
22 22 22 22 22 22 22 22 22 22 22 22 22 22 22 22 22 22 22 22 22 21 21 21 21 21 21 21 21 21 21 22 22 22 22 22 22 21 20 20 21 21 21 21 21 21 21 21 21 21 21 21 21 21 21 21 22 21 21 22 21 21 21 21 21 21 21 21 21 21 21 21 21 21 21 21 21 21 21 21 21 21 21 21 21
22 22 22 22 22 22 22 22 22 22 22 22 22 22 22 22 22 22 22 22 21 21 21 21 21 21 21 21 21 21 21 21 21 21 21 22 22 21 20 21 21 21 21 21 21 21 21 21 21 21 21 21 21 21 21 22 22 21 22 22 21 21 21 21 21 21 21 21 21 21 21 21 21 21 21 21 21 21 21 21 21 21 21 21 21
22 22 22 22 22 22 22 22 22 22 22 22 22 22 22 22 22 22 22 21 21 21 21 21 21 21 21 21 21 21 22 21 21 21 21 22 22 21 21 21 21 21 21 21 21 21 21 21 21 21 21 21 21 21 22 22 22 22 22 22 21 21 21 21 21 21 21 21 21 21 21 21 21 21 21 21 21 21 21 21 21 21 21 21 21
22 22 22 22 22 22 22 22 22 22 22 22 22 22 22 22 22 22 22 21 21 21 21 21 21 21 21 21 21 21 21 21 21 21 21 21 21 21 21 21 21 21 21 21 21 21 21 21 21 22 21 21 21 21 22 22 21 22 22 22 21 21 21 21 21 21 21 21 21 21 21 21 21 21 21 21 21 21 21 21 21 21 21 21 21
22 22 22 22 22 22 22 22 22 22 22 22 22 22 22 22 22 21 22 21 21 22 21 21 21 21 21 21 21 21 21 21 21 21 21 21 21 21 21 21 21 21 21 21 21 21 21 21 21 22 22 22 22 22 22 22 22 22 22 22 21 21 21 21 22 22 21 21 21 21 21 21 21 21 21 21 21 21 21 21 21 21 21 21 21
22 22 22 22 21 21 22 22 22 22 22 22 22 22 22 22 22 21 22 21 21 21 21 21 21 22 21 21 21 21 21 21 21 21 21 21 21 21 21 21 21 21 21 21 21 21 21 22 22 22 22 22 22 22 22 22 22 22 22 21 21 21 22 22 22 22 22 21 21 21 21 21 21 21 21 21 21 21 21 21 21 21 21 21 21
22 22 22 22 21 21 22 22 22 22 22 22 22 22 22 22 22 22 22 22 21 21 21 21 21 22 22 22 21 21 21 21 21 21 21 21 21 21 21 21 21 21 21 21 21 21 21 22 22 22 22 22 22 22 21 22 22 22 21 21 21 22 22 22 22 22 21 21 21 21 21 21 21 21 21 21 21 21 21 20 20 21 21 21 21
22 22 22 22 22 22 22 22 22 22 22 22 22 22 22 22 22 22 22 22 22 22 21 21 22 22 22 21 21 21 21 21 21 21 21 21 21 21 21 21 21 21 21 21 21 21 21 22 22 22 22 22 22 22 22 22 22 22 21 21 21 22 22 22 22 22 21 21 21 21 21 21 21 21 21 21 20 21 21 20 21 21 21 21 21
22 22 22 22 22 22 22 22 22 22 22 22 22 22 22 22 22 22 22 22 22 21 21 22 22 22 22 21 21 21 21 21 21 21 21 21 21 21 21 21 21 21 21 22 22 21 22 22 22 22 22 22 22 22 22 22 22 22 22 21 22 22 22 22 22 22 21 21 22 21 21 21 21 21 21 21 20 20 20 20 21 21 21 21 21
21 22 22 22 22 22 22 22 22 22 22 22 22 22 22 22 22 22 22 22 21 21 21 22 22 22 22 21 21 21 21 21 21 21 21 21 21 21 21 21 21 21 22 22 22 21 22 22 22 22 22 22 22 22 22 22 22 22 22 22 22 22 22 22 22 22 22 22 22 21 21 21 21 21 21 21 20 20 20 20 20 21 21 21 21
21 22 22 22 22 22 22 22 22 22 22 22 22 21 22 22 22 22 22 21 21 21 21 22 22 21 21 21 21 21 21 21 21 21 21 21 21 21 21 21 21 21 22 22 22 22 22 22 22 22 22 22 22 22 22 22 22 22 22 22 22 22 22 22 22 22 22 22 22 21 21 21 21 21 21 21 21 21 21 20 21 21 21 21 21
22 22 22 21 21 22 22 22 22 22 22 22 22 21 21 21 22 22 22 21 21 21 21 21 21 21 21 21 21 21 21 21 21 21 21 21 21 21 21 22 22 22 22 22 22 22 22 22 22 23 23 23 23 23 22 22 22 22 22 22 22 22 22 22 22 22 22 22 22 21 21 21 21 21 21 20 21 21 21 21 21 21 21 20 20
22 22 21 21 22 22 22 22 22 22 22 22 21 21 21 21 21 21 21 21 21 21 21 21 21 21 22 21 21 21 21 21 21 21 21 21 21 22 22 21 22 22 22 22 22 22 22 23 23 23 23 23 23 23 22 22 22 22 22 22 22 23 22 22 22 22 22 22 22 21 21 21 21 21 21 20 20 20 20 21 21 21 21 21 20
22 22 21 22 22 22 22 22 22 22 22 22 21 21 21 21 21 21 21 21 21 21 21 22 22 22 22 22 21 21 21 21 21 21 21 22 22 22 22 22 22 22 22 22 22 22 23 23 23 23 23 23 23 23 22 22 22 22 22 22 22 22 23 23 22 22 22 22 22 21 21 21 21 21 20 20 20 20 20 21 21 20 20 20 20
22 22 22 22 22 22 22 22 22 22 22 21 21 21 21 21 21 21 21 21 21 21 21 22 22 22 22 22 21 21 21 21 21 22 21 21 22 22 22 22 22 22 22 22 23 23 23 23 23 23 23 23 23 23 23 23 23 23 22 22 22 23 23 23 23 23 22 22 22 21 21 21 21 20 20 20 20 20 21 20 20 20 20 20 20
23 23 22 22 22 22 22 22 22 22 22 22 21 21 21 21 21 21 21 21 21 21 21 21 22 22 22 21 21 22 22 22 22 22 22 22 22 22 22 22 22 22 22 23 23 23 23 23 23 23 23 23 23 23 23 23 23 23 23 23 23 23 23 23 23 23 22 22 22 22 21 21 21 20 20 21 20 21 21 20 20 20 20 20 20
23 23 23 22 22 22 22 22 22 22 22 22 22 22 22 22 22 22 21 22 22 21 21 22 22 22 22 22 21 22 22 22 22 22 22 22 22 22 22 22 22 23 23 23 23 23 23 23 23 23 24 23 23 23 23 23 23 23 23 23 23 23 23 23 23 23 23 22 22 22 21 21 21 21 21 21 21 20 20 20 20 20 20 20 20
23 23 23 23 22 22 22 22 22 22 22 22 22 22 22 22 22 22 22 22 22 22 22 22 22 22 22 22 22 22 22 22 22 22 23 23 23 23 23 23 23 23 23 23 23 23 23 24 24 24 24 24 24 24 23 23 23 23 23 23 23 23 23 23 23 23 23 22 22 22 21 21 21 21 21 21 21 20 21 21 21 20 20 20 20
23 23 23 23 22 22 22 22 22 22 22 22 22 22 22 22 22 22 22 22 22 22 22 22 22 22 22 22 22 22 22 23 23 23 23 23 23 23 23 23 23 23 23 23 23 23 23 23 24 24 24 24 24 24 24 23 23 23 23 23 23 23 23 23 23 23 23 23 22 22 22 22 21 21 21 21 21 21 21 21 20 20 20 20 20
24 23 23 23 23 22 22 22 23 23 22 22 22 22 22 22 22 22 22 22 22 22 22 22 22 22 22 22 23 23 23 23 23 23 23 23 23 23 23 23 23 23 23 23 23 23 23 23 24 24 24 24 24 24 24 24 24 24 24 24 24 24 24 23 23 23 23 23 23 22 22 22 22 21 21 21 21 21 21 21 20 20 20 20 20
24 23 23 23 23 22 22 22 23 23 23 23 23 23 22 22 22 22 22 22 22 22 23 23 23 22 22 22 23 23 23 23 23 23 23 23 23 23 23 23 23 23 23 23 23 23 23 24 24 24 24 24 24 25 25 24 24 24 24 24 24 24 24 24 24 24 24 23 23 23 22 22 22 22 22 22 22 21 21 21 21 20 20 20 20
24 23 23 23 23 22 22 22 23 23 23 23 23 23 23 23 23 23 23 23 23 23 23 23 22 22 22 22 23 23 23 23 23 23 23 23 23 23 23 23 23 23 23 23 23 24 24 24 24 24 25 25 25 25 25 25 25 25 25 25 25 25 24 24 24 24 24 24 24 23 23 23 23 23 23 23 23 22 22 22 21 21 21 21 20
24 23 23 23 23 23 22 23 23 23 23 23 23 23 23 23 23 23 23 23 23 23 23 23 22 22 22 22 22 23 23 23 23 23 23 23 23 23 23 23 23 24 24 24 24 24 24 24 25 25 25 25 25 25 25 25 25 25 25 25 25 25 25 24 24 24 24 25 24 24 24 24 24 23 23 23 23 23 23 22 22 22 21 21 21
24 24 23 23 23 23 23 23 23 23 24 24 24 23 23 23 23 23 23 23 23 23 23 23 22 22 22 22 22 23 23 23 23 23 23 23 23 23 23 23 23 24 24 24 24 24 24 25 25 25 25 25 25 25 25 25 25 25 25 25 25 25 25 25 24 24 24 25 25 24 24 24 24 24 24 24 23 23 23 23 23 22 22 22 22
24 24 23 23 23 23 23 23 23 24 24 24 24 24 24 24 24 23 23 23 23 23 23 23 23 22 22 22 23 23 23 23 23 23 23 23 23 23 23 23 23 24 24 24 24 24 24 24 25 25 25 25 26 26 26 26 26 26 25 25 25 25 25 25 25 25 24 25 25 24 24 24 24 24 24 24 24 24 23 23 23 23 23 23 23
24 24 24 24 23 23 23 23 23 24 24 24 24 24 24 24 24 23 23 23 23 23 23 23 23 23 23 23 23 23 23 23 23 23 23 23 23 23 23 23 23 23 24 24 24 24 24 25 25 25 25 26 26 26 26 26 26 26 26 26 25 25 25 25 25 25 25 25 25 25 24 24 24 24 24 24 24 24 24 24 24 24 24 23 23
25 25 25 24 24 24 24 24 24 24 24 24 24 24 24 24 24 24 23 23 23 23 23 23 23 23 23 23 23 23 23 23 23 23 23 23 23 23 23 23 23 24 24 24 24 24 24 25 25 25 26 26 26 26 26 26 26 26 26 26 26 26 26 25 25 25 25 25 25 25 25 25 24 24 24 24 24 24 24 24 24 24 24 24 24
26 25 25 24 25 25 25 25 24 24 24 24 24 24 24 24 24 24 23 23 23 23 23 23 24 23 23 23 23 23 23 23 23 23 23 23 23 23 23 23 24 24 24 24 24 24 24 25 25 26 26 26 26 26 26 26 26 26 26 26 26 26 26 26 25 25 25 25 25 25 25 25 25 25 25 25 25 24 24 24 24 24 25 24 24
26 26 25 25 25 25 25 25 25 24 25 24 24 24 24 24 24 24 23 23 23 23 23 23 24 24 23 23 23 23 23 23 23 23 23 23 23 23 23 23 24 24 24 24 24 24 25 25 25 26 26 26 26 26 26 26 26 26 26 26 26 26 26 26 25 25 25 25 26 26 25 25 25 25 25 25 25 25 24 25 25 25 25 25 24
26 26 26 25 25 25 25 25 25 25 25 25 24 24 24 24 24 24 23 23 23 23 23 23 23 23 23 23 23 23 23 23 23 23 24 23 23 23 23 24 24 24 24 24 24 25 25 25 25 26 26 26 26 26 26 26 26 26 26 26 26 26 26 26 26 26 26 26 26 26 26 26 25 25 25 25 25 25 25 25 25 25 25 25 25
26 26 26 26 26 25 25 25 25 25 25 25 25 24 24 24 24 24 23 23 23 23 23 23 23 23 23 23 23 23 23 23 23 23 24 24 24 23 23 24 24 24 24 24 24 25 25 25 25 26 26 26 26 26 26 26 26 26 26 26 26 26 26 26 26 26 26 26 26 26 26 26 26 26 26 26 25 25 25 25 25 25 25 25 25
26 26 26 26 26 26 25 25 25 25 25 25 25 25 24 24 24 24 24 23 23 23 23 23 23 23 23 23 23 23 23 23 23 23 23 24 24 23 23 24 24 24 24 24 24 25 25 25 25 26 26 26 26 26 26 26 26 26 26 26 26 26 26 26 26 26 26 26 26 26 26 26 26 26 26 26 26 26 26 25 26 25 25 26 26
27 26 26 26 26 26 25 25 25 25 25 25 25 25 25 24 24 24 24 24 23 23 23 23 23 23 23 23 23 23 23 23 23 23 23 24 24 24 23 24 24 24 24 24 24 25 25 25 25 26 26 26 26 26 26 26 26 26 26 26 26 26 27 26 26 26 26 26 26 26 26 26 26 27 26 26 26 26 26 26 26 26 26 26 26
27 27 26 26 26 26 26 25 25 25 25 25 25 25 25 25 25 24 24 24 24 23 23 23 23 24 24 24 23 23 23 23 23 23 24 24 24 24 23 24 24 24 24 24 24 24 25 25 25 25 26 26 26 26 26 26 26 26 26 26 25 25 26 27 27 27 27 27 27 27 27 26 27 27 27 27 27 27 27 26 26 26 27 27 27
27 26 26 26 26 26 26 25 25 25 25 25 25 25 25 25 25 25 25 24 24 24 23 23 23 24 24 24 24 24 24 23 23 23 24 24 24 24 23 24 24 24 24 24 24 24 25 25 25 25 25 25 26 26 26 26 26 26 26 26 25 25 26 26 27 28 28 28 28 27 27 27 27 27 27 27 27 27 27 27 27 27 27 27 27
27 26 26 26 25 26 26 26 25 25 25 25 25 25 25 25 25 24 24 24 24 23 23 23 23 23 23 24 24 24 24 24 23 24 24 24 24 23 23 24 24 24 24 24 24 24 24 25 25 25 25 25 25 26 27 27 27 27 26 26 25 25 26 26 26 28 29 28 28 28 28 28 28 28 28 27 28 28 27 27 27 27 27 27 27
26 27 27 26 26 26 26 26 25 25 25 25 25 25 25 25 25 24 24 23 23 23 23 23 23 23 24 24 23 23 23 24 24 24 24 23 24 23 23 23 24 24 24 24 24 24 24 25 25 25 25 25 25 26 27 27 27 27 27 26 26 26 26 26 26 27 28 29 29 29 28 28 28 28 28 28 28 28 28 28 28 27 28 28 28
26 27 27 26 26 26 26 26 25 25 25 25 25 25 25 25 25 24 24 24 24 24 24 24 24 24 24 24 23 23 23 23 24 24 23 23 23 23 24 23 24 24 24 24 24 24 25 25 25 25 25 25 25 26 26 27 27 27 27 27 27 27 27 27 26 26 27 29 29 29 29 28 28 28 28 28 28 28 28 28 28 28 28 28 27
27 27 26 26 26 26 26 25 25 25 25 25 25 25 25 25 25 25 25 25 25 25 24 24 24 24 24 24 23 23 23 23 23 24 23 23 23 24 24 24 23 24 24 24 24 25 25 25 25 25 25 25 25 26 26 26 26 27 27 27 27 27 28 27 27 27 27 28 28 28 29 29 29 29 29 29 28 28 28 28 28 28 28 28 27
27 27 26 26 26 26 26 25 25 25 25 25 25 25 25 25 25 25 25 25 25 25 25 25 24 24 24 24 23 23 23 23 23 24 23 24 24 24 24 24 24 24 24 24 24 24 25 25 25 25 25 25 25 26 26 26 26 26 27 27 27 28 28 28 28 28 27 28 27 27 28 28 28 29 29 29 29 29 29 29 28 28 28 28 28
27 27 27 27 26 26 25 25 25 25 25 25 25 25 26 26 25 25 26 26 25 25 25 25 24 24 24 24 24 24 23 23 23 24 24 24 24 24 24 24 24 24 24 24 24 24 25 25 25 25 25 25 25 26 26 26 26 26 26 26 27 27 28 28 28 28 27 28 27 26 27 28 28 29 29 29 29 29 29 29 29 29 28 28 28
27 27 26 26 26 26 25 25 25 25 25 25 25 25 26 26 26 26 26 26 25 25 25 25 25 24 24 24 24 24 24 24 24 24 24 24 24 24 24 24 24 24 24 24 24 24 25 25 25 25 25 25 25 26 26 26 26 26 26 26 27 27 27 27 27 27 27 27 27 27 27 28 28 29 30 30 30 29 29 29 29 29 29 28 28
Height
829 829 831 831 833 833 833 833 833 834 835 835 835 836 836 837 837 837 837 837 836 836 836 835 835 835 835 836 837 838 838 838 838 838 839 839 838 836 836 838 838 838 837 837 837 837 838 838 839 839 839 839 840 840 840 840 841 841 842 842 843 843 843 844 844 844 844 844 844 844 844 844 844 844 844 844 844 844 843 843 843 843 844 843 843
828 830 831 832 833 833 834 833 834 835 836 837 837 837 838 838 838 838 838 837 837 836 836 836 836 836 837 837 838 839 840 840 840 839 840 840 838 837 837 838 839 839 838 838 838 838 839 840 840 840 840 841 841 841 841 842 842 843 843 844 845 845 845 845 845 845 845 845 845 846 846 845 845 845 845 845 845 845 845 845 845 845 845 845 845
829 831 831 833 834 833 834 833 835 836 837 837 838 839 839 839 839 839 838 838 837 837 837 837 837 838 838 839 839 840 841 841 840 840 840 840 839 838 838 839 839 839 839 839 839 840 840 841 841 841 841 842 842 843 843 843 843 844 844 845 846 846 847 846 846 846 846 846 846 846 847 847 847 846 847 847 846 846 846 846 846 846 846 846 846
829 831 832 833 834 834 834 834 836 837 838 839 839 839 840 840 839 840 839 839 838 838 838 838 839 839 840 840 841 842 842 841 841 840 841 840 839 838 839 839 839 839 840 840 840 841 841 842 842 842 842 843 843 844 844 844 844 845 846 846 847 847 848 848 848 847 847 847 847 848 848 848 848 848 848 848 848 847 848 848 847 847 847 847 847
830 832 833 834 834 834 835 835 837 838 839 839 840 840 840 840 840 840 839 839 839 839 839 839 840 841 841 842 842 843 843 842 840 839 840 840 840 839 839 840 839 840 841 841 841 842 843 843 843 843 844 844 845 845 845 845 846 847 847 848 848 848 849 849 849 849 848 848 849 849 849 849 849 849 849 849 849 849 849 849 849 849 848 848 848
831 832 833 834 835 835 836 837 838 839 840 840 840 841 841 841 841 841 840 840 839 839 840 840 841 842 842 843 843 843 844 842 839 838 839 840 840 840 840 841 840 841 842 842 842 843 844 844 845 845 845 845 846 846 846 846 847 847 848 849 849 850 850 850 850 850 850 850 850 850 850 850 850 850 850 850 850 850 850 850 850 850 849 849 849
831 832 834 834 835 836 837 838 839 840 840 841 841 842 842 842 841 841 840 840 840 840 841 842 842 843 843 844 844 844 844 842 839 839 840 841 842 842 841 842 842 842 843 843 843 844 844 845 846 846 846 847 847 847 848 848 848 849 850 850 850 851 851 852 851 851 851 851 851 851 851 851 851 851 852 851 851 852 852 852 851 851 850 850 850
832 833 834 835 836 836 838 839 840 841 842 842 842 842 842 842 841 841 841 841 841 841 842 843 843 844 844 845 845 845 844 840 839 840 842 843 842 842 842 843 843 844 844 845 845 845 845 846 846 847 847 848 848 848 849 850 850 850 851 851 851 852 852 853 853 853 852 852 852 852 852 852 853 853 853 853 853 853 853 853 852 852 851 851 851
833 834 835 836 836 837 839 840 841 842 842 843 843 843 842 842 842 841 842 842 842 843 843 844 844 845 845 846 846 845 843 840 840 842 844 843 843 842 843 844 844 845 845 846 846 846 847 847 848 848 849 849 850 850 850 851 851 852 852 853 853 853 854 854 854 854 853 853 853 853 854 854 854 854 854 854 854 854 854 854 853 853 853 853 852
833 834 836 836 837 839 840 841 842 843 843 844 843 843 843 843 842 842 843 843 844 844 845 845 845 846 846 847 846 845 842 841 842 843 844 844 843 843 844 845 846 847 847 848 847 848 848 848 849 850 850 850 851 852 852 852 852 853 853 854 854 854 854 855 855 855 854 854 855 855 855 855 855 855 855 855 855 855 855 855 854 854 854 854 854
834 835 836 837 839 840 841 842 843 844 844 844 844 844 844 844 844 844 844 844 845 845 845 846 846 846 847 847 846 844 844 844 844 844 844 844 844 844 845 846 847 847 848 849 848 849 849 850 850 851 851 852 852 853 853 853 854 854 855 855 855 855 855 856 856 855 856 856 856 856 856 856 856 857 856 856 856 856 856 856 856 855 855 855 855
835 836 837 839 839 841 842 843 844 844 845 845 845 845 845 845 845 845 845 845 846 847 847 847 847 847 847 847 846 844 844 845 845 845 845 845 845 845 846 847 847 848 849 849 849 850 850 851 852 852 853 853 854 854 855 855 855 856 856 856 856 856 856 857 856 856 857 857 857 857 857 857 857 858 858 858 857 857 857 857 857 856 856 856 856
835 837 838 840 840 842 843 844 844 845 845 845 846 846 846 846 846 846 846 846 846 847 847 848 847 848 847 847 846 845 845 845 845 846 846 846 846 847 847 848 848 849 849 850 851 851 852 852 853 854 854 854 855 856 856 856 857 857 857 858 858 857 857 857 858 857 858 858 858 858 858 858 858 859 859 859 859 859 858 858 858 857 857 857 857
835 837 838 840 841 843 843 845 845 845 846 846 846 846 847 847 847 847 847 847 847 848 848 848 848 848 847 847 847 847 847 846 847 847 847 847 847 848 848 848 848 849 850 851 851 852 853 854 854 855 856 856 856 857 858 858 858 858 859 859 859 858 858 858 859 859 859 859 859 859 859 859 860 860 860 860 860 860 860 859 859 859 859 859 859
836 837 839 841 842 844 844 845 846 846 847 847 847 847 848 848 848 848 847 848 848 848 848 849 848 848 847 847 847 847 847 847 848 848 848 848 848 848 849 849 849 850 851 852 852 853 854 855 856 857 857 857 858 859 859 859 859 860 860 860 860 859 859 859 860 860 860 860 860 860 860 861 861 861 861 861 861 861 861 861 860 860 860 860 860
837 838 840 841 843 844 845 846 846 847 847 848 848 848 849 848 849 849 849 849 849 849 849 849 849 848 848 847 848 848 848 848 848 848 848 849 849 849 849 850 850 851 852 853 854 854 856 856 857 858 859 859 859 860 860 861 861 861 861 861 861 860 861 861 861 861 861 862 861 861 861 862 862 862 862 862 863 862 862 862 862 861 861 861 861
838 840 841 842 843 845 845 846 847 848 848 849 849 849 849 849 850 850 850 850 849 850 849 850 849 848 848 848 849 849 849 849 849 849 849 849 850 850 851 851 851 852 853 854 855 856 857 858 858 859 860 860 861 861 861 862 863 863 862 862 862 862 862 862 862 862 863 863 862 862 862 863 863 863 864 864 864 863 863 863 863 863 862 862 862
839 841 842 843 844 845 846 847 847 848 849 849 850 850 850 850 851 851 851 851 850 851 851 851 850 849 849 849 850 849 850 850 850 851 851 851 851 851 852 852 853 853 854 855 856 857 858 859 859 860 860 862 862 862 863 863 864 864 864 864 863 863 863 863 863 863 864 864 864 864 864 864 864 864 865 865 865 864 864 864 864 864 863 863 863
840 842 843 844 845 846 846 847 848 848 849 850 850 851 851 851 851 852 852 851 851 852 852 852 851 851 850 850 851 850 851 851 851 852 852 852 852 853 853 854 854 855 856 856 857 858 859 860 860 861 861 862 863 864 864 864 865 865 865 864 864 864 864 864 864 865 865 865 865 865 865 865 865 865 866 866 866 866 865 865 865 865 864 864 864
841 843 843 845 845 846 847 848 849 849 850 850 851 851 852 852 852 853 852 852 852 853 853 853 853 853 852 852 852 852 852 852 852 853 853 854 854 854 855 855 856 856 857 858 859 859 860 861 861 862 862 863 864 865 865 865 866 866 866 865 865 865 865 865 866 866 866 866 866 866 866 866 866 867 867 867 867 867 866 866 866 865 865 865 865
842 843 844 846 846 847 847 849 849 850 851 851 852 852 853 853 853 854 854 854 854 855 854 855 854 854 853 853 853 853 853 854 854 854 855 855 856 856 856 857 858 858 859 859 860 860 861 862 862 863 863 864 865 866 866 866 866 866 866 866 866 866 866 867 867 867 867 867 867 867 867 867 868 868 868 868 868 868 867 867 867 866 866 866 866
842 843 845 846 846 848 848 849 850 850 851 852 853 853 854 854 854 855 855 855 855 856 856 856 856 855 855 854 854 854 854 855 855 855 856 856 857 857 858 859 859 860 860 861 861 862 862 863 864 864 865 866 866 867 867 867 867 867 867 867 867 867 868 868 868 868 868 867 868 868 868 868 868 869 869 869 869 868 868 868 867 867 867 867 866
841 843 845 846 847 848 848 849 850 851 852 852 853 854 855 855 855 856 856 856 856 857 857 857 857 856 856 856 856 856 856 856 856 857 857 858 858 859 860 860 861 861 862 862 863 863 864 865 865 866 866 867 868 868 868 868 868 868 868 868 868 869 869 869 869 868 868 868 869 869 869 869 869 869 869 869 869 869 869 868 868 868 868 867 867
841 842 844 846 847 848 849 850 850 851 852 853 854 854 855 856 856 856 857 857 857 858 858 858 858 858 858 857 858 857 857 857 858 858 858 859 859 860 861 862 862 862 863 863 864 865 865 866 867 867 868 868 869 869 869 869 869 869 869 869 869 870 869 869 869 869 869 869 869 869 870 870 870 870 870 870 870 869 869 869 869 868 868 868 868
840 842 844 845 847 848 849 850 851 852 852 853 854 855 855 856 857 857 858 858 859 859 859 860 859 859 859 859 859 859 859 859 859 859 860 860 860 861 861 862 863 863 864 864 865 866 867 867 868 868 869 869 869 869 869 869 869 869 869 869 870 870 870 870 870 870 870 870 870 870 870 870 871 871 870 870 870 870 869 869 869 869 868 868 868
840 842 843 845 847 848 849 850 851 852 853 854 854 856 856 857 857 858 859 859 860 860 860 861 860 861 861 860 860 860 860 860 861 861 861 861 861 862 862 863 864 865 865 866 866 867 868 868 868 869 869 869 869 869 870 870 870 870 870 870 870 870 871 870 870 870 870 871 871 871 871 871 871 871 871 871 870 870 870 869 869 869 869 868 868
839 841 843 845 846 848 849 850 851 852 853 854 855 856 856 857 858 859 859 860 861 861 861 861 862 862 862 862 862 862 862 862 862 862 863 863 863 863 864 865 866 866 867 867 868 868 868 869 869 870 870 870 870 870 870 870 871 871 871 871 871 871 871 871 871 871 871 871 871 871 871 871 871 871 871 871 870 870 870 869 869 869 869 869 869
839 841 843 844 846 848 849 850 851 852 853 854 855 856 857 857 858 859 860 860 861 862 862 862 863 863 863 863 863 863 863 863 863 864 864 864 865 865 866 866 867 868 868 869 869 869 870 870 870 870 870 870 870 870 870 871 871 872 872 872 872 872 872 871 871 871 871 872 872 872 872 872 872 871 871 871 871 870 870 869 869 869 869 869 869
839 840 842 844 846 847 849 851 851 852 853 854 855 856 857 858 859 860 861 861 862 862 863 863 864 864 865 865 865 865 865 865 865 865 866 866 866 867 867 867 868 869 869 870 870 870 870 870 871 871 871 871 870 871 871 871 872 872 872 872 872 872 872 872 872 872 872 872 872 872 872 872 872 871 871 871 870 870 870 870 870 870 870 869 869
839 840 842 844 845 847 849 850 851 852 854 855 856 857 857 858 859 860 861 862 862 863 864 864 865 865 866 866 867 867 866 867 867 867 867 867 867 868 868 868 869 869 870 870 870 870 870 871 871 871 871 871 871 871 871 872 872 872 873 872 873 873 872 872 872 872 872 872 872 872 872 872 872 871 871 871 870 870 870 870 870 870 870 869 869
839 840 842 843 845 847 849 850 851 852 853 855 856 856 858 859 860 860 861 862 863 864 864 865 865 866 866 867 867 868 868 868 868 868 868 868 869 869 869 869 870 870 870 871 871 871 871 871 872 872 871 871 871 871 872 872 872 873 873 873 873 873 873 873 873 873 872 873 873 872 872 872 871 871 871 870 870 870 870 870 870 870 870 869 869
838 840 841 843 845 846 848 850 851 852 853 855 855 856 858 859 860 861 862 862 863 864 865 865 866 866 867 867 868 868 869 869 869 869 869 870 870 870 870 870 870 871 871 871 872 872 872 872 872 872 872 872 872 872 873 873 873 873 873 873 873 873 873 873 873 873 873 873 873 873 872 872 872 871 871 870 870 870 870 870 870 870 869 869 869
838 840 841 843 844 846 848 850 851 852 853 854 855 857 858 859 860 861 862 862 863 864 865 866 866 867 867 868 868 869 869 870 870 870 870 871 871 871 871 871 871 871 872 872 872 872 872 872 872 872 872 872 872 873 873 873 873 873 873 873 873 873 873 873 874 874 874 873 873 873 873 872 872 871 871 870 870 870 870 870 870 870 869 869 868
837 839 841 843 844 846 847 850 851 852 853 855 856 857 858 859 860 861 862 863 863 864 865 866 866 867 868 868 869 869 870 870 870 871 871 871 871 871 871 871 872 872 872 872 872 872 872 872 872 872 872 872 873 873 873 873 874 874 874 873 873 873 873 873 874 874 874 874 873 873 873 873 872 871 871 871 871 870 870 870 870 869 869 868 868
837 839 841 842 844 845 847 849 850 852 853 855 855 857 858 859 860 861 862 863 863 864 865 866 866 867 868 868 869 869 870 870 871 871 871 872 872 872 872 872 872 872 873 873 873 873 873 873 873 873 873 873 873 874 874 874 874 874 874 874 873 873 873 873 874 874 874 874 874 873 873 873 872 872 871 871 871 871 871 870 870 869 869 868 868
836 839 841 842 844 845 847 848 850 852 853 854 855 857 858 859 861 861 862 863 863 864 865 865 866 867 868 868 869 869 870 871 871 871 872 872 872 872 873 873 873 873 873 874 874 873 873 873 873 874 873 874 874 874 874 874 874 874 874 874 874 874 873 873 874 874 874 874 874 874 873 873 873 872 872 872 871 871 871 870 870 869 869 868 868
836 838 840 842 843 844 846 847 849 851 852 854 855 857 858 859 860 861 862 863 864 865 865 866 866 867 868 868 869 869 870 871 871 872 872 872 872 873 873 873 874 874 874 874 874 874 874 874 874 874 874 874 874 874 874 874 874 875 875 875 874 874 874 874 874 874 874 874 874 874 874 873 873 873 872 872 872 872 871 870 870 870 869 868 868
836 838 840 841 842 844 846 847 848 850 852 853 855 857 858 859 860 861 862 863 864 865 865 866 866 867 868 868 869 870 870 871 871 872 872 872 873 873 873 874 874 874 874 874 874 874 874 874 874 874 874 874 875 875 874 875 875 875 875 875 874 874 874 874 874 874 874 874 874 874 873 873 873 873 872 872 872 872 871 871 870 870 869 869 868
835 837 839 841 842 843 845 846 848 849 851 853 854 856 857 859 860 861 863 863 864 865 865 866 866 867 868 868 869 870 870 871 871 872 872 872 873 873 874 874 874 874 874 874 874 874 874 874 875 875 875 875 875 875 875 875 875 875 875 875 875 874 875 875 875 875 875 874 874 874 873 873 873 873 873 872 872 872 872 871 870 870 869 869 868
834 836 839 840 841 843 844 846 848 849 851 852 854 855 856 858 860 861 863 863 864 865 866 866 866 867 868 868 869 870 871 871 871 872 872 872 873 873 874 874 874 874 874 874 874 874 875 875 875 875 876 876 876 876 875 875 875 876 875 875 875 875 875 875 875 875 875 875 874 874 873 873 873 872 872 872 872 872 872 871 871 870 870 869 869
833 835 837 839 840 841 843 844 847 849 850 851 853 854 855 857 858 860 862 863 864 865 865 866 866 867 868 868 869 870 871 871 872 872 872 873 873 873 874 874 874 874 875 875 875 875 875 875 875 876 876 876 876 876 876 876 876 876 876 876 875 875 875 875 875 875 875 875 874 874 873 873 873 872 872 872 872 872 871 871 871 870 870 869 869
831 834 836 838 840 841 842 843 845 847 849 850 852 853 854 855 857 859 861 862 863 864 865 866 866 867 868 868 869 870 870 871 872 872 873 873 873 873 874 874 874 875 875 875 875 875 875 875 876 876 876 876 876 876 876 876 876 876 876 876 876 876 875 875 875 875 874 874 874 873 873 873 872 872 872 872 872 872 871 871 871 870 869 869 869
830 833 835 837 839 840 841 842 844 846 848 850 851 852 854 855 857 858 860 861 862 863 864 865 866 867 867 868 869 869 870 871 871 872 873 873 873 874 874 874 875 875 875 876 876 876 876 876 876 876 876 877 877 877 877 877 877 877 877 878 878 877 877 874 873 873 872 872 872 872 872 872 872 872 872 872 871 871 871 871 871 870 870 869 869
828 831 833 836 838 839 840 841 843 845 847 849 850 852 854 856 857 858 860 861 862 863 864 865 866 866 867 868 869 869 870 871 871 872 872 873 873 874 874 874 875 875 876 876 876 876 876 876 876 876 877 877 877 877 877 877 877 877 878 879 878 879 881 876 872 871 871 871 871 870 871 871 872 872 872 871 871 871 871 871 871 870 870 869 869
827 829 831 834 836 838 840 841 842 844 846 848 850 852 854 856 857 858 860 861 862 863 863 864 865 866 867 867 868 869 870 870 871 872 872 873 873 874 874 874 875 875 876 876 876 876 876 876 877 877 877 878 877 877 877 877 877 877 877 878 880 882 881 876 873 872 869 869 870 869 870 871 871 872 871 870 871 871 871 871 871 871 870 870 869
825 827 830 833 835 837 839 841 842 843 845 847 849 851 853 854 855 856 858 859 861 862 862 863 864 865 866 867 868 868 869 870 871 872 872 873 873 874 874 875 875 875 876 876 876 877 877 877 877 877 878 878 878 877 877 877 877 877 877 877 879 880 878 875 876 875 870 868 868 869 870 870 871 871 871 870 871 871 871 871 871 871 870 870 869
824 826 829 831 834 836 838 840 841 842 844 846 848 850 852 853 854 855 856 857 859 860 861 862 862 864 865 866 867 868 869 870 871 872 872 873 873 873 874 875 875 875 876 876 876 877 877 877 877 878 878 878 878 878 877 877 877 877 877 877 877 877 876 875 876 876 874 871 868 869 870 870 870 871 870 871 871 871 871 871 871 871 871 870 870
823 825 828 830 833 835 837 838 840 842 843 845 847 849 850 852 853 854 855 856 857 858 860 861 862 863 865 865 866 867 868 869 870 871 872 872 873 873 874 874 875 875 876 876 876 876 877 877 877 878 878 878 878 878 878 877 877 877 877 877 876 876 876 875 874 874 876 875 872 870 870 870 870 871 870 871 871 871 871 871 871 871 871 870 870
822 824 826 829 831 834 836 838 839 841 842 844 846 848 849 850 852 853 854 856 857 858 859 860 862 863 864 865 866 867 868 868 870 870 871 872 872 873 873 874 874 875 875 876 876 876 876 877 877 877 878 878 878 878 878 878 877 877 877 877 877 876 875 875 874 873 873 875 875 872 870 871 871 871 871 871 870 871 871 871 871 871 871 870 869
820 822 825 827 830 833 835 836 838 839 841 843 845 847 848 849 851 852 853 854 856 857 858 859 861 862 863 864 865 866 867 868 869 870 871 871 872 873 873 873 874 874 875 875 876 876 876 877 877 878 878 878 878 878 878 878 878 878 878 877 877 876 876 875 875 875 874 874 875 873 871 871 871 870 870 870 870 870 870 871 871 871 870 870 869
819 821 823 826 829 831 833 835 837 839 840 842 844 845 847 848 849 851 852 853 854 856 857 858 859 861 861 862 864 865 866 867 868 869 870 870 871 872 872 873 873 874 875 875 875 876 876 877 877 877 878 878 878 878 878 878 878 878 878 878 878 877 877 877 876 876 875 874 874 874 872 872 872 871 870 870 870 870 870 870 870 870 870 869 869
Wind_Speed
17 16 17 14 14 14 14 15 14 13 13 14 14 14 13 13 13 14 13 14 14 15 14 14 14 14 14 13 14 14 13 13 13 13 14 13 12 11 11 14 15 16 16 16 16 16 16 16 16 17 18 18 19 20 20 20 21 20 20 20 22 23 22 21 20 20 19 18 17 17 16 18 20 20 19 19 19 20 20 20 20 19 19 19 19
19 19 17 15 15 15 15 15 14 13 13 14 13 13 13 12 13 13 13 13 13 13 13 13 13 13 13 13 13 13 12 12 12 13 13 13 12 11 11 14 15 15 15 15 15 15 16 16 16 17 18 18 18 18 19 21 21 22 22 22 22 23 22 21 20 19 18 16 16 17 17 18 20 20 19 20 19 20 20 19 19 19 19 18 18
21 20 18 17 17 16 14 14 14 13 13 13 13 12 12 12 12 12 12 12 12 12 12 12 12 12 12 13 12 12 12 11 11 12 12 13 13 12 12 14 14 14 14 14 14 14 16 16 16 17 18 18 18 18 19 20 21 22 22 22 21 21 20 19 18 18 16 17 18 18 19 19 20 20 19 19 19 19 19 19 19 19 19 18 18
22 21 19 18 18 17 15 15 14 14 13 13 12 11 11 11 11 11 12 12 12 12 11 12 12 12 12 12 13 12 11 10 10 10 11 12 13 13 13 13 13 14 13 14 14 14 16 16 16 16 17 17 18 18 19 20 21 22 22 21 21 20 18 18 18 18 18 19 20 20 20 19 19 18 18 19 19 19 19 19 19 19 18 18 18
24 22 20 19 18 18 16 16 15 14 13 12 11 11 11 11 10 11 12 12 12 12 12 12 12 12 12 12 13 13 12 10 10 11 11 11 13 14 14 13 13 14 14 14 15 15 15 16 16 16 17 17 17 18 18 19 20 21 22 21 20 19 18 18 17 18 19 20 20 19 20 20 18 17 18 19 19 19 19 19 18 18 18 17 17
24 22 21 20 19 18 17 15 14 13 12 12 11 11 11 11 10 11 11 12 11 11 11 11 11 11 12 11 12 13 13 12 11 11 12 12 13 14 14 13 13 14 14 14 15 15 15 16 16 16 18 17 17 17 18 19 20 21 20 20 20 19 18 17 17 18 19 20 19 19 18 19 18 17 17 18 18 18 18 18 18 17 17 17 16
24 23 21 21 20 18 16 15 14 13 12 11 11 11 11 11 10 10 11 11 11 11 10 11 11 11 11 11 11 12 13 12 11 12 13 12 12 13 13 13 13 14 14 15 15 16 16 16 16 16 18 18 17 17 17 19 20 20 19 20 20 18 17 17 17 18 19 19 18 18 17 18 17 16 16 17 17 17 18 17 17 17 16 16 16
25 23 21 21 19 18 16 15 13 12 12 11 12 12 11 10 10 11 11 11 11 10 10 11 11 11 12 11 12 13 12 11 11 12 14 13 13 14 13 13 13 14 15 15 15 16 16 16 16 16 18 18 17 16 17 18 19 19 19 20 19 18 17 17 17 18 18 18 17 17 17 17 17 15 15 16 16 17 17 17 16 16 16 16 15
24 22 21 20 19 18 16 15 13 12 12 12 12 11 11 11 11 12 12 12 11 10 10 10 11 12 12 12 12 13 12 11 11 12 14 14 15 15 13 13 13 14 15 15 15 15 16 15 16 17 18 18 17 16 17 17 18 18 18 18 18 18 17 16 17 17 17 18 17 16 16 17 16 15 15 16 16 16 17 16 16 16 16 15 15
23 21 21 19 19 18 15 15 13 12 12 12 11 11 11 11 12 12 12 12 11 11 11 11 12 13 13 13 13 14 13 12 12 13 14 14 15 15 13 13 14 15 15 14 14 15 15 15 16 16 17 18 17 16 17 17 17 17 16 17 18 18 17 16 16 16 17 17 17 16 16 16 16 15 15 15 15 16 16 16 16 16 15 15 15
22 21 21 20 19 17 15 14 13 12 11 12 11 11 12 12 12 12 13 12 12 12 13 13 13 14 14 14 14 14 13 13 12 13 14 15 15 14 13 14 14 15 15 15 15 15 15 15 16 16 16 18 17 16 17 17 17 17 16 17 18 18 16 15 14 15 16 17 17 17 17 16 16 15 15 15 15 15 15 15 15 15 15 15 14
22 22 21 20 18 16 16 13 12 12 11 12 11 11 12 13 13 13 14 14 15 14 14 14 13 14 15 15 14 13 13 13 13 13 14 14 15 14 14 14 15 15 16 16 16 16 15 15 17 17 17 17 16 16 18 18 17 17 18 18 18 18 16 14 14 16 16 17 17 17 17 17 16 15 14 15 15 15 14 14 14 15 15 14 14
23 22 21 19 17 16 15 13 12 11 12 11 11 11 11 13 13 13 14 15 16 16 15 14 14 14 15 15 15 14 13 13 13 13 14 14 14 14 15 15 15 16 17 17 16 16 16 16 17 18 18 18 17 17 18 18 17 18 18 18 17 16 15 13 14 16 16 16 17 16 17 16 15 14 14 14 14 14 14 14 14 14 14 13 13
24 23 21 19 17 15 14 13 12 11 12 11 11 12 12 13 13 13 15 16 16 16 15 15 15 15 16 15 15 14 13 13 14 14 14 14 15 15 15 16 16 16 17 17 17 17 17 18 19 20 20 20 20 19 19 19 18 19 18 16 15 15 14 13 14 15 15 16 16 16 16 16 15 14 13 13 13 13 13 13 13 14 13 13 12
25 24 22 20 17 15 14 13 11 12 11 11 11 12 12 13 13 13 14 15 15 16 16 16 16 16 16 15 14 14 14 14 14 15 15 15 15 15 16 16 16 16 17 18 18 18 19 19 20 21 21 21 20 18 18 19 19 18 17 15 14 13 12 13 14 14 15 15 15 16 16 15 14 13 13 12 12 12 13 12 13 13 12 12 12
24 23 22 20 17 15 14 12 12 12 11 12 12 12 13 13 13 13 14 15 15 17 17 16 17 17 16 15 15 14 14 15 15 15 15 15 15 16 16 17 17 17 18 19 19 20 20 20 21 21 21 19 18 18 17 18 18 17 15 14 13 12 11 12 14 14 14 15 15 15 16 14 13 13 12 12 12 12 12 12 12 12 11 11 11
23 22 21 19 17 16 14 12 12 12 12 12 12 14 14 13 13 13 14 15 16 17 17 17 18 17 16 15 14 14 14 15 16 16 15 15 15 16 17 17 18 18 19 20 20 20 19 19 21 21 19 17 19 19 18 17 17 15 13 13 12 10 12 12 13 14 14 14 14 15 15 14 13 12 12 12 12 11 11 11 11 11 11 11 10
22 21 20 19 18 16 14 13 13 13 12 12 13 14 14 14 13 13 15 16 17 17 17 18 17 17 15 14 14 15 16 16 16 16 16 16 16 17 17 18 19 18 19 20 20 20 18 19 21 21 19 18 20 19 16 14 14 14 13 13 11 11 13 13 13 13 13 13 13 14 13 13 12 11 11 11 11 10 10 10 11 10 10 10 9
21 21 20 19 18 17 15 13 14 14 13 13 13 14 15 14 14 14 15 15 16 16 17 17 16 16 15 14 14 15 16 17 17 17 17 17 17 18 18 19 19 18 20 21 20 19 18 20 21 21 19 19 19 18 16 12 13 15 14 13 11 11 12 12 12 12 12 13 12 13 12 12 11 11 11 10 10 9 9 10 10 10 9 8 8
20 20 20 19 18 17 15 14 14 13 14 14 13 14 14 14 14 14 15 15 15 16 17 16 16 16 15 14 15 16 16 16 17 17 17 18 18 18 18 18 18 18 19 20 20 19 19 20 21 21 20 19 19 18 16 14 14 15 13 12 11 10 10 11 11 11 12 12 11 11 11 10 10 10 10 9 9 8 8 9 9 9 8 7 7
19 19 19 18 18 17 15 15 15 14 14 14 14 13 13 14 14 14 14 14 15 16 16 16 16 15 15 15 16 17 17 17 17 17 17 17 17 17 18 18 19 18 18 18 18 19 19 20 21 22 21 20 19 19 16 15 15 14 13 12 9 8 9 9 10 11 11 11 10 10 10 9 9 9 9 8 8 7 7 8 8 7 7 6 6
19 19 17 17 17 17 16 15 16 15 15 15 14 13 13 14 14 14 14 14 16 17 17 16 16 16 16 16 17 17 18 18 18 18 18 18 17 17 18 17 18 18 17 18 18 19 19 21 22 22 21 19 19 19 17 14 13 13 14 12 8 6 7 8 9 10 10 9 9 10 9 8 8 8 7 7 6 6 6 6 6 6 6 5 4
21 20 18 18 18 18 16 16 16 17 17 16 15 13 14 14 14 14 14 15 16 17 16 15 16 16 17 17 17 17 17 18 18 18 18 17 17 17 17 16 17 17 17 18 18 18 19 21 22 20 19 19 19 19 17 13 10 10 11 11 8 5 5 7 8 8 9 9 9 9 9 8 8 7 6 6 5 5 5 5 5 4 4 4 3
23 22 21 19 19 19 17 16 16 17 18 17 16 15 15 15 15 15 14 15 15 16 16 16 17 17 18 18 17 17 17 16 17 17 17 17 17 17 16 16 16 16 17 19 19 19 20 21 21 19 18 18 17 15 13 11 10 10 10 9 7 5 5 6 7 8 8 8 8 8 8 7 7 6 5 5 5 4 4 4 4 3 3 2 2
23 23 22 20 19 19 18 16 16 18 18 17 17 16 16 16 16 15 14 15 15 16 16 17 17 17 17 18 17 17 16 16 17 18 18 18 18 18 17 17 17 17 18 20 20 20 20 20 19 18 17 15 13 11 10 11 11 11 10 9 7 5 4 5 6 7 7 7 7 7 7 6 6 5 5 4 4 4 4 4 3 2 2 2 1
24 23 22 21 19 18 18 17 17 18 18 18 18 17 16 16 16 15 14 14 15 16 16 16 16 16 16 17 17 16 16 16 17 18 18 18 18 19 18 18 19 18 19 20 20 20 19 19 18 16 14 13 11 9 9 11 13 13 11 9 7 6 4 4 6 6 6 6 7 7 6 5 5 4 4 4 4 3 3 3 3 2 2 1 1
24 23 22 21 20 19 20 18 17 18 18 18 18 18 17 16 15 14 14 15 15 15 17 17 16 16 17 17 17 17 17 18 19 19 19 19 19 18 18 18 18 18 18 19 19 18 18 16 14 12 11 11 11 9 9 10 13 14 12 10 7 6 4 4 5 6 6 6 6 6 5 4 4 4 4 4 3 4 3 3 3 2 2 2 2
24 23 22 21 21 20 21 19 17 18 19 18 18 17 16 15 14 14 14 14 14 16 17 17 18 18 18 17 18 19 20 20 20 20 19 18 17 17 16 16 16 15 15 15 14 13 12 11 10 8 8 8 8 8 9 10 12 13 11 9 7 5 4 4 4 5 5 5 5 5 4 4 4 3 3 3 3 4 4 3 4 3 3 3 3
24 23 23 22 22 21 21 19 18 19 18 17 17 16 15 15 14 14 14 13 14 16 18 19 20 18 16 16 18 20 20 19 18 17 16 15 14 14 14 13 13 12 11 10 10 9 7 7 7 7 7 7 7 8 9 10 12 13 11 8 7 5 4 3 2 3 5 4 4 4 4 4 4 3 3 4 4 4 4 4 4 4 4 4 4
25 24 23 23 22 22 21 20 19 19 18 17 16 16 16 14 14 15 14 15 15 16 18 20 19 17 15 15 17 18 17 15 15 15 13 12 12 11 11 11 10 9 8 7 7 6 6 5 6 7 7 8 9 9 8 10 11 11 11 8 6 4 2 1 2 3 4 4 4 4 4 4 3 3 3 4 4 4 4 4 4 4 4 4 4
25 24 24 23 24 22 20 20 20 19 18 17 16 16 16 15 15 15 15 16 16 16 17 17 17 15 14 14 14 15 14 14 13 12 11 10 9 9 10 10 10 9 7 6 6 5 5 5 5 6 7 8 10 10 9 11 10 9 11 9 6 4 2 2 1 3 4 3 3 3 3 3 3 3 3 3 3 3 3 3 3 4 4 4 4
25 25 24 24 24 22 20 21 20 19 19 18 16 15 15 15 15 16 16 17 17 16 16 16 16 15 14 13 13 14 14 13 11 10 10 9 9 10 10 9 9 9 8 7 6 6 6 6 6 7 7 8 10 10 10 11 10 9 10 10 7 5 4 3 2 3 5 5 4 4 3 2 2 1 2 2 2 2 2 3 3 4 4 5 6
26 25 25 25 24 22 21 22 20 20 19 17 16 15 15 16 16 17 17 17 16 16 16 16 16 15 14 13 13 14 13 11 10 10 10 10 10 10 9 9 9 9 8 8 7 6 6 6 7 7 8 8 10 10 10 11 10 11 11 11 9 7 6 5 4 3 5 5 5 4 4 3 2 1 0 1 1 2 2 2 3 3 4 5 6
26 26 26 26 23 23 23 22 21 20 18 16 15 15 15 16 17 18 17 17 16 15 15 15 16 14 14 15 15 15 13 12 12 12 11 11 11 11 9 9 9 9 8 8 7 5 5 5 5 6 7 8 9 9 9 10 10 11 12 12 10 9 8 7 6 4 4 4 3 2 2 2 1 0 1 1 1 1 1 1 2 2 3 4 5
26 27 27 26 23 23 24 23 22 20 18 17 17 17 18 18 18 18 17 16 15 14 14 15 16 16 15 16 16 15 15 14 14 13 13 12 12 12 10 9 9 8 8 8 6 5 4 5 5 5 6 7 9 10 9 9 9 10 10 10 11 9 9 9 8 6 4 3 1 1 1 1 2 1 1 1 0 0 1 1 1 2 2 3 4
28 28 28 26 24 24 24 24 23 20 18 18 18 19 19 19 18 17 16 15 14 14 14 15 16 17 17 16 16 16 16 15 15 14 14 13 13 13 11 10 10 8 9 8 6 5 4 4 4 5 7 7 9 10 9 8 9 10 9 7 8 7 6 9 10 8 6 4 2 3 3 3 2 1 0 0 1 1 2 3 3 3 3 3 3
28 28 28 27 25 25 23 23 23 21 19 19 20 20 20 19 19 18 17 15 15 15 15 14 15 17 17 17 16 16 15 14 15 14 13 12 13 13 12 10 10 9 9 8 7 6 5 4 4 6 9 9 9 9 8 8 9 9 8 7 7 5 4 7 9 8 7 6 5 6 5 4 3 2 2 1 0 1 1 2 3 3 4 5 4
29 28 27 27 26 25 23 23 23 21 19 19 20 20 19 19 19 20 19 18 17 16 14 14 15 17 17 17 17 16 14 14 14 13 13 12 12 12 11 11 10 9 9 8 8 7 6 5 5 6 8 8 8 6 5 8 10 9 9 8 6 5 6 8 9 8 8 7 7 7 6 6 5 4 3 3 2 2 1 0 1 2 3 5 5
29 28 27 27 27 25 23 24 25 23 21 20 20 21 20 20 21 22 20 18 18 16 15 14 15 16 17 17 16 16 15 14 13 13 13 12 12 11 10 11 10 9 9 9 9 8 7 6 5 6 6 6 6 4 4 7 9 10 9 6 5 5 7 9 9 9 9 9 10 9 7 8 8 6 5 4 3 3 2 1 0 1 2 4 5
30 29 29 28 27 26 24 25 26 24 23 22 22 23 23 21 21 22 21 20 19 17 15 15 16 16 16 16 16 16 16 15 14 13 12 12 12 11 10 11 10 9 8 8 8 8 7 7 6 6 5 5 4 3 5 6 9 9 7 5 5 6 8 8 9 10 10 11 11 11 10 10 10 9 7 5 5 4 3 2 1 1 2 4 5
30 31 29 29 29 28 26 26 27 25 24 24 24 25 25 24 23 23 23 22 20 18 16 15 16 17 16 16 16 16 16 15 14 12 12 12 12 11 10 11 10 8 7 7 7 8 7 7 7 6 4 3 3 3 4 6 8 8 5 5 6 6 7 8 9 10 12 13 13 13 13 13 12 11 9 8 6 5 4 3 2 2 3 5 5
30 31 31 30 30 29 27 26 27 26 24 23 26 26 25 24 23 23 23 22 20 19 17 16 15 16 16 16 16 16 15 14 14 12 12 12 12 11 10 10 9 8 7 6 7 7 7 6 6 5 4 2 2 3 3 3 5 5 3 2 4 6 7 10 11 12 13 14 14 15 15 15 13 11 10 9 7 6 6 4 4 4 4 5 4
32 32 32 32 31 30 28 27 27 27 24 23 25 25 23 22 21 20 20 20 19 18 17 16 14 15 15 15 15 16 15 13 13 13 12 12 12 11 10 10 10 8 7 7 6 7 7 6 5 4 3 1 0 2 4 2 2 4 2 1 2 3 5 8 11 13 12 13 14 15 16 17 14 10 10 10 7 5 5 5 4 3 2 3 3
32 32 32 32 31 31 30 28 27 27 26 23 23 22 20 20 18 18 18 17 17 17 17 16 14 14 14 14 15 15 15 13 13 13 13 12 12 11 10 11 10 8 7 7 6 6 7 7 5 4 2 1 2 2 4 4 4 4 2 0 0 1 2 5 8 10 11 12 14 15 16 17 16 12 12 11 7 5 4 3 2 2 1 2 4
31 32 33 32 32 33 32 30 28 27 27 25 24 20 18 21 20 19 19 17 15 16 17 16 14 14 15 15 15 15 15 15 13 13 14 13 12 12 11 10 10 9 8 8 8 7 7 6 5 4 3 3 4 3 3 3 3 4 2 0 1 2 2 3 5 6 9 11 13 13 14 15 16 14 13 11 8 6 5 4 1 0 1 4 6
31 33 33 32 32 33 32 31 29 28 28 25 25 21 19 22 22 21 22 19 18 18 19 18 16 15 16 15 14 15 15 15 14 14 14 14 13 13 12 10 10 9 9 9 9 9 7 6 5 4 4 3 5 3 2 2 3 4 2 3 4 3 4 5 3 2 5 8 10 12 13 14 15 15 13 12 10 8 6 6 4 1 1 4 6
31 33 33 31 32 33 32 31 29 29 29 27 25 23 21 21 22 22 23 22 21 20 19 18 16 15 15 15 13 14 15 15 14 14 15 14 13 13 12 10 9 8 10 10 10 10 8 7 5 4 5 4 5 4 3 3 3 5 4 5 6 4 5 5 2 2 2 4 5 8 12 14 15 15 13 12 12 11 9 8 6 3 1 2 3
31 32 32 31 32 33 32 31 29 28 29 28 25 24 22 21 21 22 22 21 20 19 18 17 15 14 15 14 13 14 14 14 14 14 14 13 13 13 11 11 9 9 10 10 10 10 7 7 6 5 7 6 5 3 2 2 2 3 5 6 6 5 6 5 3 2 0 1 3 2 6 12 15 15 13 11 12 13 12 9 7 4 1 0 2
32 32 31 31 32 32 32 31 29 27 28 28 26 24 23 21 20 22 22 19 17 16 16 17 16 14 14 14 13 13 14 13 14 13 13 12 12 12 11 11 10 10 10 9 9 10 8 8 8 8 9 8 5 3 2 1 2 4 5 7 7 7 6 5 5 5 2 2 3 3 1 8 13 14 14 12 11 13 12 9 7 5 3 2 3
33 33 32 31 32 32 32 31 29 27 27 29 27 24 24 22 20 22 21 19 17 16 16 17 17 16 14 14 14 14 13 14 14 14 13 12 11 11 11 10 10 10 10 8 8 10 9 9 9 9 10 9 7 6 4 2 2 3 5 7 7 9 7 4 8 10 5 2 2 4 3 2 7 11 14 13 11 12 10 7 7 6 5 4 4
33 33 31 31 32 32 32 32 30 28 26 29 28 25 25 24 21 21 21 19 18 17 17 18 17 17 16 16 15 14 14 14 14 14 13 11 11 12 12 11 11 10 10 10 9 10 9 9 10 10 10 10 8 8 7 5 3 3 4 6 7 9 8 7 13 14 9 4 2 3 4 1 5 8 11 11 9 8 8 7 6 7 5 5 5
Wind_Direction
167 162 153 149 146 144 139 135 129 127 118 116 117 117 118 117 114 109 107 106 107 109 111 112 115 115 112 110 107 108 109 114 116 118 119 121 127 128 132 129 119 119 121 119 118 115 114 112 112 111 112 114 115 115 114 114 112 107 103 103 106 107 109 107 105 105 103 102 102 101 99 103 103 100 98 96 95 95 94 92 91 88 86 87 88
164 161 155 154 150 144 141 135 129 124 116 118 118 120 121 116 111 108 108 107 108 109 111 113 116 120 120 116 111 109 110 115 120 124 123 123 127 126 127 130 125 123 127 126 121 117 116 114 113 113 114 115 116 116 116 117 116 110 105 103 104 105 106 106 106 105 103 101 99 98 99 102 102 101 100 97 96 95 94 92 92 91 89 88 88
158 161 159 158 152 146 143 137 131 123 120 123 124 125 120 113 110 111 112 109 108 108 109 109 111 116 120 119 114 111 114 118 123 130 127 124 124 125 127 131 131 127 128 126 121 119 118 115 115 116 116 117 117 119 119 120 118 113 109 105 104 105 105 105 104 103 102 101 99 98 99 99 99 99 99 97 96 93 92 91 89 89 89 89 87
159 161 160 158 152 147 144 139 132 125 127 129 128 125 118 115 116 120 118 114 113 111 109 106 106 110 112 117 118 115 115 119 127 135 130 126 128 131 133 133 133 129 128 125 124 122 120 118 117 118 118 117 119 120 121 121 117 114 111 108 107 105 104 104 102 99 97 99 100 99 98 96 96 98 98 97 95 94 93 91 89 88 87 87 86
161 160 159 155 151 148 144 139 130 127 133 130 123 116 115 119 121 125 121 116 113 110 109 106 108 110 110 113 119 118 115 120 132 140 137 138 136 136 138 136 134 131 130 128 127 124 120 119 117 120 120 118 119 121 121 120 117 115 113 109 107 106 105 103 100 98 98 100 99 99 99 97 96 97 97 96 94 93 92 91 90 89 88 86 86
160 157 155 151 151 147 144 138 129 131 133 127 120 115 119 120 121 122 117 112 109 107 105 105 108 112 113 115 119 120 118 123 136 145 146 147 139 138 139 135 132 130 132 130 127 124 120 118 117 121 122 120 121 122 122 120 118 116 112 109 106 105 105 104 102 102 103 102 100 99 100 101 99 97 96 95 95 95 93 91 90 89 89 88 87
157 155 153 152 152 147 144 137 131 135 133 131 126 122 122 120 119 114 112 111 109 108 106 107 109 113 117 118 121 121 123 132 150 154 145 139 133 134 136 133 130 130 132 130 127 126 123 122 121 122 123 122 122 122 121 118 117 116 112 110 107 104 106 107 108 107 106 103 100 101 102 103 101 98 98 97 96 96 95 91 90 90 90 90 89
155 156 155 154 152 148 144 135 136 140 138 137 127 122 121 116 111 105 107 108 107 108 110 113 113 116 117 119 122 122 129 143 158 153 135 129 131 132 134 137 136 132 131 129 129 126 123 125 124 123 122 122 122 120 119 116 116 116 113 112 108 106 107 110 111 109 107 103 101 102 103 104 103 99 98 99 98 95 94 91 90 91 92 91 89
157 157 156 153 150 148 142 139 143 144 142 134 121 118 116 111 106 104 106 108 111 113 115 119 120 121 119 122 125 128 141 151 149 140 128 130 135 132 133 137 136 133 130 128 127 123 122 123 124 123 123 122 120 119 119 117 117 117 115 114 110 109 110 110 110 109 106 102 101 100 101 105 104 100 98 98 96 94 93 92 92 93 93 91 88
158 156 153 149 148 147 142 145 147 145 140 126 118 117 115 111 108 106 109 115 119 119 119 121 122 124 124 126 128 138 149 149 141 135 132 135 136 131 133 136 132 130 129 127 124 123 124 123 124 125 126 123 120 119 119 117 117 118 117 115 112 112 113 112 110 109 106 102 102 101 101 105 104 101 101 99 96 94 92 91 92 94 93 91 87
155 153 150 148 148 146 146 150 147 144 132 122 122 120 117 113 110 108 111 116 120 121 122 122 124 125 125 127 131 142 146 142 141 138 137 139 138 132 133 134 132 131 129 128 126 126 126 125 126 127 127 122 120 119 118 119 120 118 117 114 114 115 116 116 111 108 107 106 104 103 102 102 103 102 101 100 97 94 92 93 95 95 93 89 85
154 152 150 149 149 148 150 150 144 138 125 123 123 120 120 117 115 113 115 117 120 122 123 125 126 124 124 127 130 136 133 130 132 132 133 137 138 136 133 129 129 129 127 127 128 128 127 126 127 127 125 120 119 118 117 119 119 117 117 115 114 117 120 120 114 111 111 110 108 106 103 101 101 101 100 99 97 95 94 96 97 95 92 87 84
155 153 151 150 151 152 151 146 141 133 127 126 122 120 118 117 117 117 119 121 122 122 124 126 125 123 124 126 128 128 126 124 124 125 129 131 132 133 130 127 126 126 125 126 128 128 126 126 126 127 125 120 119 117 118 117 116 118 119 118 117 121 122 120 118 117 115 113 110 107 105 103 102 102 101 100 98 97 97 98 97 94 90 87 82
156 154 152 153 153 152 149 143 139 132 130 125 123 123 119 118 119 119 120 120 121 123 125 124 123 123 124 126 126 126 127 127 126 127 129 129 129 129 128 127 126 126 126 127 128 128 127 126 126 126 124 121 119 118 118 118 120 122 122 120 120 124 124 120 121 120 117 114 111 109 107 105 105 105 104 102 100 99 100 100 96 92 89 86 82
157 155 153 154 152 150 146 141 139 135 130 124 123 122 122 123 122 122 120 119 122 125 124 122 122 123 124 124 124 124 125 125 126 129 128 128 129 128 127 127 126 126 126 126 127 128 128 127 126 126 125 123 123 121 120 124 127 125 123 121 123 128 127 122 123 121 119 116 112 111 108 107 109 108 107 105 103 102 102 100 96 93 90 87 83
158 155 153 154 151 148 144 142 141 135 128 127 127 125 127 126 124 125 123 123 124 124 122 123 124 123 123 122 121 121 121 122 123 125 127 129 129 128 128 128 126 125 126 126 127 128 128 128 128 128 128 126 124 121 121 127 129 126 122 121 126 131 130 128 126 125 122 119 115 113 111 110 112 111 111 109 107 105 103 99 96 94 90 87 84
158 155 154 153 151 147 143 145 142 135 132 132 131 130 129 127 128 128 125 127 127 125 123 125 125 123 122 121 121 119 117 118 119 120 124 129 129 128 129 128 127 126 127 127 128 128 128 129 131 130 128 124 121 121 120 122 127 128 124 123 127 132 134 131 127 127 124 121 118 116 115 115 115 114 114 112 107 105 103 100 97 94 91 88 84
156 156 155 153 151 148 146 147 142 138 137 135 134 132 130 130 131 128 127 130 130 127 126 126 124 122 120 120 119 117 115 116 117 118 120 124 126 126 127 126 127 128 128 129 130 129 129 131 133 131 128 124 122 124 122 124 128 127 125 127 132 134 133 129 127 129 125 122 119 117 117 118 119 117 116 112 108 107 104 101 99 95 92 89 85
156 158 156 155 153 149 150 150 146 144 141 139 137 134 133 133 131 129 129 131 129 126 126 124 124 122 119 118 117 114 114 115 117 118 118 120 122 124 124 123 124 126 128 130 130 129 131 134 136 134 131 128 127 127 125 129 129 127 132 137 139 136 133 130 129 130 127 123 121 119 117 117 117 116 115 113 111 110 106 102 100 97 94 90 86
158 161 159 158 156 153 154 152 150 148 144 143 140 138 136 134 132 130 130 130 127 126 125 124 123 121 119 120 117 115 115 116 117 117 119 120 121 122 122 122 123 124 126 128 129 130 133 137 139 137 133 131 130 129 129 134 133 134 141 143 144 143 137 133 134 134 131 128 126 124 120 119 118 116 115 113 112 111 107 103 101 101 98 93 89
159 163 161 160 161 158 156 154 154 151 148 145 141 140 135 134 134 132 131 129 127 125 124 123 123 121 122 121 118 117 117 117 116 116 117 119 121 122 123 123 123 124 125 127 129 132 136 140 141 138 136 134 134 133 134 139 138 140 143 145 150 146 138 138 140 140 136 133 132 129 126 126 123 119 117 115 114 110 107 101 98 99 99 100 95
160 162 164 166 165 161 158 157 156 154 152 145 141 139 134 134 135 134 132 129 128 127 126 127 127 126 126 123 120 120 118 118 118 118 119 121 123 123 124 125 126 127 129 131 133 136 139 141 141 139 138 138 138 138 138 138 135 137 144 153 155 138 134 141 145 145 141 140 137 133 133 133 129 126 123 120 116 111 107 100 96 93 96 102 98
163 165 169 172 167 162 161 161 159 157 154 147 144 141 138 137 136 135 132 131 131 130 130 130 129 129 128 124 121 120 118 118 119 120 120 121 123 123 124 125 127 129 131 133 134 135 137 140 141 140 139 139 139 140 141 140 139 144 153 162 160 134 130 145 151 151 147 144 141 138 139 139 135 133 132 129 125 122 118 109 102 99 98 97 97
167 168 169 171 167 163 163 163 162 160 157 153 148 145 143 141 138 137 135 135 134 132 131 129 129 129 128 125 122 122 120 120 122 123 123 123 124 125 125 126 127 130 132 132 132 132 133 137 140 140 139 138 137 139 141 144 147 158 168 171 167 143 128 150 160 157 154 151 147 146 147 145 140 138 140 138 136 138 132 119 113 115 112 110 117
167 166 166 167 168 167 166 166 165 163 161 157 150 148 147 144 143 142 142 140 138 135 133 131 131 131 129 127 125 126 126 127 129 129 129 130 130 130 131 132 132 133 135 134 133 132 132 136 139 140 139 138 138 139 140 143 145 156 172 176 174 162 137 151 166 164 162 158 154 154 153 149 144 143 147 149 149 152 148 134 131 138 144 158 167
163 163 163 167 172 171 169 169 169 168 164 158 152 151 150 149 149 147 146 145 143 138 136 135 134 133 131 128 127 128 130 132 132 131 131 132 132 133 134 135 135 136 138 137 136 136 137 139 140 140 140 139 142 142 140 145 147 153 171 180 181 179 161 154 170 173 168 166 164 160 159 155 154 154 160 169 166 169 168 152 156 175 186 192 208
160 161 163 168 172 173 173 172 171 169 165 160 155 155 156 154 151 148 147 147 147 141 138 138 136 135 133 130 130 131 133 133 132 130 129 130 131 132 133 134 135 137 140 141 139 140 141 143 143 144 143 145 150 155 156 158 157 161 175 185 187 185 175 165 174 179 176 177 173 166 166 169 175 172 175 191 189 192 191 177 191 202 202 217 234
157 158 161 166 170 172 173 173 170 169 167 163 160 159 159 156 152 149 147 148 149 144 141 141 139 136 133 133 134 133 132 131 129 128 128 130 131 133 134 135 137 139 143 144 144 144 147 148 149 151 153 152 158 168 172 173 174 176 183 189 186 176 160 159 173 184 186 185 183 178 179 188 197 195 195 209 213 213 210 206 219 219 211 232 242
156 158 161 166 170 169 170 172 170 170 170 167 162 161 161 158 154 151 148 150 151 147 144 144 142 138 135 136 138 137 135 132 131 131 132 133 135 137 137 138 140 143 148 151 152 153 157 164 170 177 180 180 178 174 176 181 186 188 192 194 185 169 149 140 144 177 189 190 193 193 196 203 207 210 214 219 228 231 229 225 231 234 231 235 244
158 161 163 169 172 169 172 174 171 171 171 169 166 163 163 162 158 153 151 155 155 150 148 148 146 141 139 142 146 146 143 140 138 138 139 139 140 143 143 143 144 149 155 160 164 164 166 173 181 186 192 195 184 172 168 173 183 192 198 200 188 176 168 136 97 129 167 185 198 206 209 213 213 219 226 230 241 243 240 239 241 246 248 246 251
160 162 166 173 173 171 174 175 172 171 169 169 170 166 163 163 162 157 153 157 159 154 153 153 151 145 145 151 155 156 152 148 146 146 148 147 147 149 149 148 148 152 159 166 170 166 164 170 177 185 190 187 175 173 171 166 174 190 197 201 192 182 189 189 128 112 121 137 161 189 201 204 208 217 228 240 248 250 250 253 255 252 258 265 264
164 166 169 174 173 173 175 173 173 171 171 172 171 167 164 163 163 158 156 158 160 159 159 157 155 153 156 162 162 159 156 156 158 160 159 156 153 153 155 154 149 148 150 155 159 157 160 166 173 184 189 186 182 187 191 181 181 189 197 204 199 196 200 198 192 131 115 111 111 117 125 132 151 185 220 239 244 249 258 264 270 260 261 268 269
167 168 169 172 173 176 175 173 175 172 172 173 170 169 167 165 163 160 160 159 160 163 166 163 160 161 165 172 171 164 163 166 170 170 168 164 158 157 161 159 150 145 146 149 153 156 159 164 167 175 185 195 198 198 198 194 193 195 200 207 206 209 212 205 206 168 126 113 109 107 104 99 103 107 121 265 252 252 261 270 274 270 269 273 273
167 167 169 171 173 177 175 174 175 172 169 168 168 169 168 166 164 162 163 161 160 164 169 171 170 169 170 176 176 172 172 175 177 177 176 170 163 163 165 162 153 147 152 160 168 169 171 173 175 182 187 189 187 185 189 188 192 199 201 207 214 221 221 218 220 197 150 121 110 111 110 96 85 20 327 322 297 270 266 285 287 288 284 282 282
166 168 170 170 173 176 175 173 174 173 170 165 163 165 165 164 164 165 166 165 163 167 172 175 178 176 174 177 178 177 177 177 178 179 177 172 167 167 169 168 161 157 164 170 174 178 180 178 175 180 183 182 175 177 190 188 189 195 196 203 211 219 226 227 227 217 190 161 151 241 240 276 300 324 312 293 51 56 100 68 27 344 313 295 295
167 169 171 170 171 173 173 172 174 175 171 165 162 162 164 165 168 169 169 171 172 176 177 176 177 177 177 179 179 178 177 175 176 176 175 174 172 173 174 173 171 171 173 173 174 173 176 177 165 153 154 165 170 178 196 197 189 188 187 194 197 206 225 222 224 224 216 215 247 271 264 263 279 294 287 195 102 80 99 84 60 44 22 356 339
168 170 170 170 169 169 172 171 172 174 170 164 162 164 168 170 173 173 173 179 179 178 177 176 176 174 176 180 180 181 180 177 177 177 177 177 178 179 179 177 176 175 172 174 175 169 167 172 163 144 136 144 156 171 192 187 177 183 185 184 188 201 213 206 217 225 223 233 256 265 261 249 245 234 219 219 271 22 101 95 64 49 36 22 12
168 171 172 172 169 168 174 173 171 174 171 168 167 167 170 171 172 171 172 179 180 178 179 178 176 175 176 179 181 183 184 182 179 178 180 179 178 178 176 174 177 179 172 171 175 171 166 167 161 148 138 141 152 166 195 191 182 183 183 183 191 203 197 198 212 221 227 243 251 254 261 254 245 234 230 240 259 296 290 160 69 38 31 20 8
167 171 173 173 170 168 174 174 172 174 173 173 172 171 170 168 169 169 168 174 178 179 182 183 181 179 179 180 181 183 184 183 179 178 182 182 178 174 173 176 180 179 174 169 171 168 163 164 161 155 150 152 152 137 161 192 190 179 177 188 206 206 198 202 213 220 233 249 248 249 258 257 254 250 246 251 255 271 279 249 274 3 16 11 354
167 170 172 172 172 171 172 173 172 171 172 174 171 168 168 167 168 169 167 169 176 180 183 188 188 187 187 186 186 185 185 184 183 184 186 188 183 177 176 180 181 175 175 176 172 168 164 162 157 153 160 165 154 111 125 157 169 167 175 197 213 212 213 222 224 224 239 248 246 248 254 257 260 258 256 258 255 262 263 247 288 325 337 349 343
167 169 170 172 173 173 173 173 172 171 173 175 172 168 166 166 168 171 170 169 173 178 182 188 191 193 193 192 190 188 188 189 189 188 191 194 189 182 177 179 180 173 176 181 174 172 169 160 149 147 158 156 127 115 132 144 152 163 186 208 221 225 230 242 243 240 245 248 248 250 251 253 259 260 258 259 255 253 251 247 276 296 319 333 331
166 168 169 172 174 175 175 174 173 174 176 173 173 173 170 171 171 173 174 174 177 180 184 189 191 193 195 195 194 191 190 192 193 192 194 199 195 188 184 183 182 177 184 190 179 174 172 166 152 147 151 127 102 141 165 160 162 181 194 229 256 252 249 250 249 249 251 253 254 253 251 248 253 258 256 255 254 251 248 250 274 293 321 332 329
165 167 169 172 173 175 176 176 175 177 178 172 172 174 175 178 177 177 179 180 185 188 190 192 192 193 194 195 197 196 197 198 198 198 200 202 199 194 192 192 189 184 194 199 185 172 173 177 167 158 158 139 132 177 191 218 235 212 195 319 285 273 278 263 255 254 251 252 253 254 254 246 246 252 248 245 246 246 244 248 278 306 335 355 0
165 166 169 172 173 175 177 178 178 180 182 177 173 174 176 182 182 183 185 184 187 189 190 193 197 197 194 196 198 199 201 201 201 202 203 203 200 199 201 199 193 190 199 204 197 178 174 182 178 177 192 239 283 231 220 248 253 214 192 271 287 25 306 275 275 267 253 247 245 247 250 245 242 240 234 233 234 236 234 239 284 322 5 32 20
166 166 170 173 174 176 179 181 182 182 184 182 179 176 175 180 181 178 178 179 180 181 183 188 196 198 197 197 198 200 202 201 202 203 205 205 202 202 205 201 194 195 199 202 205 195 185 188 190 207 232 265 298 283 238 252 232 205 191 353 5 7 268 290 314 281 255 249 243 240 241 241 237 227 221 224 227 232 226 216 233 233 51 37 18
169 170 172 176 176 178 180 183 185 185 186 185 184 182 179 182 182 175 172 171 175 181 185 189 194 196 198 199 199 201 201 200 203 204 204 205 203 203 205 203 200 200 200 202 205 203 198 196 202 231 244 265 300 292 241 235 222 228 278 329 328 308 289 307 326 294 269 260 248 237 233 233 228 220 218 222 227 238 233 219 221 238 32 39 16
171 172 173 177 179 180 182 185 187 188 188 186 186 186 186 189 188 184 180 178 181 189 195 197 198 195 193 197 200 200 200 200 203 203 202 201 201 205 207 207 207 207 205 207 209 203 198 202 213 243 249 263 293 289 260 253 252 249 269 318 322 308 317 321 297 305 322 282 263 241 233 233 227 222 222 225 231 238 237 229 225 240 346 45 4
171 171 173 177 182 183 185 186 187 190 189 186 185 188 192 196 194 190 188 189 190 192 196 200 201 196 192 195 199 199 200 201 202 201 201 201 201 205 206 206 210 212 209 212 211 200 199 215 230 247 250 259 273 281 277 268 308 294 275 306 318 316 340 354 327 298 125 356 326 281 227 225 221 221 227 233 237 237 237 237 231 234 240 301 292
171 172 173 178 183 185 186 188 188 190 189 186 186 189 195 200 199 194 192 195 197 193 192 197 201 198 195 197 198 199 202 205 205 202 203 203 201 202 203 206 212 210 208 215 212 204 208 226 239 247 246 250 254 260 284 288 351 343 309 312 322 327 346 17 14 3 60 57 328 325 240 209 212 220 229 238 243 238 237 240 236 232 231 258 265
174 175 175 178 182 185 186 188 189 190 188 188 190 191 196 201 199 196 196 196 197 195 192 196 201 200 200 201 199 199 201 202 204 204 205 204 201 203 204 207 208 205 206 214 215 214 220 229 238 244 245 248 251 255 262 268 328 334 321 324 327 332 344 6 0 355 2 47 347 321 351 201 218 222 222 231 243 241 233 227 228 222 224 251 251
175 176 177 178 181 184 187 188 190 191 190 191 194 195 198 201 196 193 196 196 196 197 194 196 201 202 203 205 201 199 200 201 203 204 206 205 203 204 204 205 205 203 205 210 214 220 225 227 229 235 245 249 250 254 253 248 264 288 309 330 332 335 345 343 340 336 320 320 6 340 358 16 239 231 210 212 228 230 212 204 213 214 218 235 232